Weather Roundup
Issued by NWS Corpus Christi, TX

Home | Current Version | Previous Version | Text Only | Print | Product List | Glossary On
Versions: 1 2 3 4 5 6 7 8 9 10 11 12 13 14 15 16 17 18 19 20 21 22 23 24 25 26 27 28 29 30 31 32 33 34 35 36 37 38 39 40 41 42 43 44 45 46 47 48 49 50
000
ASUS44 KCRP 040810
HRRCRP

SOUTH TEXAS REGIONAL WEATHER ROUNDUP
NATIONAL WEATHER SERVICE CORPUS CHRISTI TX
200 AM CST WED MAR 04 2015


TXZ229>244-040900-
...CORPUS CHRISTI AREA OBSERVATIONS...

CITY           SKY/WX    TMP DP  RH WIND       PRES   REMARKS
CORPUS CHRISTI FOG       68  68 100 SE15      29.82F VSB 3/4
NAS CORPUS CHR CLOUDY    67  67 100 SE13      29.82S FOG
ROCKPORT       FOG       66  65  96 SE8       29.83F VSB 1/2
KINGSVILLE NAS CLOUDY    69  69 100 SE12      29.80F
ALICE          CLOUDY    69  66  90 S16       29.79F
FALFURRIAS     CLOUDY    68  66  92 SE9       29.79F
$$

...VICTORIA AREA OBSERVATIONS...

CITY           SKY/WX    TMP DP  RH WIND       PRES   REMARKS
VICTORIA       FOG       67  67 100 SE13      29.83F VSB 3/4
BEEVILLE       CLOUDY    67  67 100 S16       29.80F
PLEASANTON     RAIN      61  60  97 CALM      29.82F
SAN ANTONIO    DRZL/FOG  60  59  96 CALM      29.83F VSB 1/16
$$

...LAREDO AREA OBSERVATIONS...

CITY           SKY/WX    TMP DP  RH WIND       PRES   REMARKS
LAREDO         CLOUDY    63  63 100 CALM      29.80R FOG
COTULLA        CLOUDY    61  60  97 E6        29.80F FOG
DEL RIO        CLOUDY    57  53  86 N5        29.83F
MCALLEN        CLOUDY    70  66  87 SE12      29.78F
HEBBRONVILLE   CLOUDY   N/A N/A N/A SE15G21   29.78F
$$

...OTHER TEXAS OBSERVATIONS...

CITY           SKY/WX    TMP DP  RH WIND       PRES   REMARKS
BROWNSVILLE    CLOUDY    71  68  90 SE14G24   29.80F
HOUSTON        CLOUDY    70  68  93 S8        29.87F
COL. STATION   CLOUDY    67  65  93 S9        29.84F
AUSTIN         FOG       57  57 100 CALM      29.83F VSB 1/4
WACO           FOG       56  55  97 CALM      29.83F VSB 1/4
FORT WORTH     CLOUDY    51  51 100 SE5       29.84F FOG
WICHITA FALLS  FOG       48  48 100 E5        29.87R VSB 1/4
LUBBOCK        CLOUDY    50  44  80 SE6       29.81S
EL PASO        CLOUDY    54  43  66 S12       29.83F
$$

...MARINE OBSERVATIONS...

STATION/POSITION TIME  SKY/WX   TEMP    WIND        PRES    VSBY  WAVE   SWELL
                                AIR SEA DIR/SP/G                  HT/PER HT/PER
                 (UTC)          (F)     (DEG/KT/KT) (MB)    (MI)  (FT/S) (FT/S)
PORT ARANSAS     0800            65 57  130/ 12/ 12 1010.0F
BUOY 90 E PORT A 0800            71 69  160/ 16/ 17 1011.2F         4/ 5
BUOY 45 SE BAFFI 0800            69 66  170/ 10/ 12 1009.8R         3/ 5   2/ 6
BUOY 200 E PT IS 0800            72 71  150/ 16/ 17 1012.0F         3/ 5   2/ 7
BUOY 15 E GALVES 0800            64 61  130/  6/  8 1011.9F         2/ 5   2/ 5
$$


USA.gov is the U.S. government's official web portal to all federal, state and local government web resources and services.